Terminal Aerodrome Forecast
Issued by NWS Sterling, VA

Home | Current Version | Previous Version | Text Only | Print | Product List | Glossary On
Versions: 1 2 3 4 5 6 7 8 9 10 11 12 13 14 15 16 17 18 19 20 21 22
000
FTUS41 KLWX 271739
TAFDCA
TAF
KDCA 271739Z 2718/2818 28008G17KT P6SM VCTS BKN070CB
     FM272100 27009G18KT P6SM BKN070
     FM272200 28009KT P6SM SCT070
     FM280200 32008KT P6SM FEW080
     FM281700 27004KT P6SM SKC=

USA.gov is the U.S. government's official web portal to all federal, state and local government web resources and services.